Date,TemperatureHighF,TemperatureAvgF,TemperatureLowF,DewpointHighF,DewpointAvgF,DewpointLowF,HumidityHigh,HumidityAvg,HumidityLow,PressureMaxIn,PressureMinIn,WindSpeedMaxMPH,WindSpeedAvgMPH,GustSpeedMaxMPH,PrecipitationSumIn
2013-1-1,16.2,5.2,-5.4,-1.4,-8.5,-15.9,63,52,42,30.23,30.11,8,2,8,0.00
2013-1-2,24.1,17.8,10.8,11.3,4.7,-1.4,67,56,38,30.14,30.02,10,5,13,0.00
2013-1-3,25.9,19.6,8.6,15.1,10.5,-3.1,75,67,57,30.21,30.03,12,6,13,0.00
2013-1-4,30.4,18.3,7.2,15.4,6.9,-3.5,70,61,50,30.17,30.06,14,5,16,0.00
2013-1-5,34.7,24.2,7.5,29.0,16.4,-0.7,82,72,63,30.20,29.85,11,5,15,0.01
2013-1-6,33.6,22.8,10.4,23.3,13.2,2.9,73,66,59,30.26,29.85,12,5,17,0.00
2013-1-7,36.3,25.5,10.4,21.3,14.4,2.8,73,63,48,30.24,30.01,21,6,23,0.01
2013-1-8,39.0,30.7,14.7,28.5,21.5,7.7,81,68,60,30.08,29.90,14,6,17,0.00
2013-1-9,40.5,34.1,23.2,28.3,22.6,13.6,75,63,51,30.43,29.91,18,9,22,0.01
2013-1-10,39.4,30.5,14.2,32.1,22.4,7.2,88,72,53,30.41,29.83,11,5,16,0.22
2013-1-11,45.9,39.0,33.8,44.7,37.2,31.5,97,93,85,29.82,29.56,14,4,14,0.02
2013-1-12,45.7,33.1,21.2,41.3,23.1,9.7,85,67,55,29.99,29.57,29,10,29,0.00
2013-1-13,21.4,15.8,11.3,9.7,2.0,-2.0,60,54,45,30.16,29.89,14,7,16,0.00
2013-1-14,25.2,14.3,6.1,5.7,0.2,-5.5,61,53,42,30.39,30.16,14,4,14,0.00
2013-1-15,29.8,19.6,7.2,11.6,5.7,-2.0,70,55,42,30.35,30.02,14,4,16,0.00
2013-1-16,32.9,26.1,17.8,25.2,14.7,2.8,73,62,51,30.03,29.73,19,7,22,0.00
2013-1-17,27.1,19.1,9.9,14.3,0.6,-5.7,63,44,30,30.34,30.03,15,4,15,0.00
2013-1-18,43.2,29.8,10.0,29.5,18.5,-0.6,70,62,54,30.35,29.78,21,9,25,0.00
2013-1-19,45.7,35.3,14.2,31.4,22.5,-5.1,73,60,34,29.93,29.62,27,10,36,0.18
2013-1-20,16.3,10.1,5.5,-4.8,-10.3,-11.8,45,39,28,30.27,29.93,23,7,26,0.00
2013-1-21,9.7,3.2,-1.8,-11.2,-17.8,-24.8,49,36,27,30.23,30.08,18,8,21,0.00
2013-1-22,8.4,0.7,-8.1,-12.1,-18.2,-23.7,49,40,31,30.30,30.22,11,5,13,0.00
2013-1-23,18.3,10.7,2.1,6.9,-3.7,-14.2,65,52,42,30.38,30.02,14,7,20,0.00
2013-1-24,15.3,5.9,-2.4,1.3,-10.6,-18.1,53,45,40,30.59,30.27,11,5,14,0.00
2013-1-25,25.0,18.5,12.2,11.5,5.4,-1.3,69,56,43,30.27,29.88,14,7,17,0.00
2013-1-26,24.8,16.8,5.0,7.3,0.6,-7.2,58,49,37,30.34,30.17,10,4,13,0.00
2013-1-27,46.9,33.9,21.9,32.2,25.5,6.4,90,72,50,30.28,29.87,10,2,11,1.98
2013-1-28,42.8,35.5,32.2,34.9,30.4,26.3,90,82,64,29.96,29.79,10,3,16,0.09
2013-1-29,52.2,41.3,34.2,51.1,39.6,31.7,97,94,85,29.80,29.53,11,4,12,0.81
2013-1-30,34.5,26.6,14.4,32.2,21.9,4.5,92,82,64,29.65,29.38,8,1,12,0.05
2013-1-31,14.4,9.1,-0.6,4.5,-4.2,-15.3,66,54,43,30.15,29.65,0,0,0,0.00
2013-2-1,4.6,-0.3,-7.8,-4.7,-15.2,-22.1,64,48,36,30.32,30.12,0,0,0,0.00
2013-2-2,16.0,7.2,0.0,-3.0,-6.0,-13.0,64,54,39,30.13,30.01,0,0,0,0.00
2013-2-3,21.2,13.2,4.6,5.3,0.4,-4.7,68,57,42,30.05,29.94,11,2,16,0.00
2013-2-4,22.5,13.1,5.9,5.8,0.2,-8.5,68,56,35,30.01,29.94,8,3,9,0.00
2013-2-5,28.8,18.8,4.3,19.2,8.9,-6.1,76,65,57,30.12,29.78,16,5,17,0.00
2013-2-6,33.1,18.5,-2.9,25.7,7.8,-13.2,81,63,49,30.22,30.07,11,3,12,0.00
2013-2-7,35.4,30.9,21.4,31.1,26.2,16.8,85,83,75,30.12,29.95,9,2,11,0.24
2013-2-8,30.7,20.3,9.9,16.3,9.5,-0.1,81,63,46,30.39,30.12,0,0,0,0.11
2013-2-9,28.8,21.5,9.9,20.2,13.4,-0.1,82,71,63,30.39,30.08,14,6,17,0.00
2013-2-10,41.9,32.5,18.0,40.7,28.7,10.8,96,85,73,30.08,29.42,23,8,30,0.38
2013-2-11,37.4,29.9,24.4,29.5,21.1,14.2,78,69,61,30.01,29.42,28,15,35,0.04
2013-2-12,30.9,24.0,20.1,17.1,13.2,9.7,77,63,52,30.10,29.88,13,7,15,0.00
2013-2-13,38.7,28.2,14.2,25.9,19.0,7.8,78,69,53,29.88,29.69,14,3,14,0.00
2013-2-14,45.0,34.0,28.2,32.2,24.0,13.7,83,67,50,30.21,29.59,17,6,20,0.05
2013-2-15,46.9,22.9,10.2,31.6,4.5,-6.3,73,45,31,30.19,30.10,13,5,14,3.74
2013-2-16,20.3,11.2,1.8,-0.7,-7.7,-11.7,57,43,24,30.15,30.09,11,4,12,0.00
2013-2-17,25.9,14.4,-1.8,12.0,-1.7,-13.9,62,49,31,30.15,29.86,13,5,17,0.00
2013-2-18,46.4,33.7,26.1,32.3,23.1,12.6,85,65,55,29.86,29.45,17,7,18,0.04
2013-2-19,26.1,13.7,6.8,19.6,1.3,-10.8,76,58,42,30.14,29.54,19,7,24,0.01
2013-2-20,24.8,14.3,4.3,5.0,-2.8,-11.1,54,46,38,30.32,30.14,12,5,12,0.00
2013-2-21,25.0,17.9,9.0,19.8,8.0,-4.2,82,65,54,30.38,30.00,17,6,23,0.00
2013-2-22,32.4,26.0,22.8,22.6,19.1,16.5,81,75,64,30.00,28.78,14,6,18,0.07
2013-2-23,32.2,25.4,18.9,16.6,14.1,7.3,71,62,51,28.93,28.82,14,7,15,0.02
2013-2-24,39.6,24.8,10.0,20.5,12.0,0.9,71,58,42,29.11,28.93,5,2,7,0.01
2013-2-25,42.1,28.0,13.3,24.8,16.3,5.4,71,62,50,29.14,29.01,9,2,9,0.00
2013-2-26,35.6,30.2,26.8,25.7,21.8,17.2,87,71,56,29.01,28.66,20,8,20,0.00
2013-2-27,34.9,30.7,27.5,28.6,25.7,22.5,86,81,75,28.80,28.64,14,5,15,0.22
2013-2-28,37.2,31.1,23.4,27.3,21.4,13.4,85,68,52,29.12,28.80,12,3,17,0.09
2013-3-1,28.8,23.7,21.6,14.7,12.9,11.6,72,63,50,29.22,29.12,10,5,14,0.00
2013-3-2,32.7,18.5,2.5,11.1,1.0,-7.4,68,47,28,30.22,30.12,8,3,11,0.00
2013-3-3,34.5,14.9,-1.8,6.0,-2.5,-13.9,61,47,28,30.12,30.04,8,2,8,0.00
2013-3-4,32.5,20.0,6.1,21.1,7.1,-6.1,68,57,48,30.07,29.98,16,6,17,0.00
2013-3-5,30.6,27.8,24.4,24.0,20.5,17.3,80,74,67,30.06,29.86,9,5,9,0.05
2013-3-6,34.7,28.9,18.5,21.1,18.1,7.4,73,64,55,30.28,30.09,11,5,14,0.09
2013-3-7,38.8,22.0,4.1,18.3,7.9,-4.9,72,55,34,30.37,30.27,7,2,8,0.00
2013-3-8,39.4,25.6,6.3,23.5,13.9,-2.9,74,61,50,30.41,30.21,13,4,15,0.00
2013-3-9,40.6,35.2,30.0,33.1,26.7,19.5,86,71,60,30.22,29.76,17,8,17,0.39
2013-3-10,41.2,36.8,33.6,39.0,33.8,30.4,93,89,84,29.79,29.61,11,4,16,0.66
2013-3-11,34.5,32.2,28.8,30.5,27.6,20.2,88,83,70,29.74,29.53,11,2,15,0.02
2013-3-12,34.0,28.2,24.6,20.7,17.0,10.8,76,63,49,29.99,29.74,16,4,17,0.01
2013-3-13,34.9,25.5,18.0,14.1,5.2,-0.6,66,44,25,30.26,29.99,14,6,18,0.00
2013-3-14,36.1,24.8,12.4,22.6,13.3,1.9,77,61,47,30.26,30.01,10,3,14,0.00
2013-3-15,37.9,30.8,24.4,29.4,24.3,18.4,85,77,66,30.00,29.79,14,4,17,0.11
2013-3-16,32.5,26.4,20.1,21.9,15.0,10.1,77,62,48,30.11,29.79,9,2,11,0.00
2013-3-17,34.3,23.5,15.1,15.6,7.8,-0.4,64,51,42,30.23,29.96,15,7,17,0.00
2013-3-18,34.9,24.9,16.0,27.8,16.5,2.7,82,70,53,29.95,29.55,20,7,24,0.15
2013-3-19,29.8,18.2,11.3,4.3,1.4,-1.2,58,48,32,30.01,29.69,21,12,21,0.00
2013-3-20,23.5,15.1,7.5,-1.0,-5.3,-11.6,47,39,29,30.05,29.98,16,8,17,0.00
2013-3-21,30.2,18.8,6.4,5.9,-0.7,-9.2,54,42,31,30.02,29.96,10,4,12,0.00
2013-3-22,38.1,23.3,7.9,11.4,4.5,-4.6,64,46,27,30.04,29.98,8,2,8,0.00
2013-3-23,41.9,28.2,16.5,16.2,11.8,6.7,70,51,33,30.10,30.01,10,3,13,0.00
2013-3-24,34.9,30.7,28.6,24.5,21.1,16.7,76,67,60,29.93,29.78,11,4,16,0.08
2013-3-25,37.9,31.1,23.7,20.5,16.7,11.8,63,55,45,30.06,29.81,12,5,13,0.00
2013-3-26,45.1,35.6,29.3,24.5,19.2,16.9,63,51,41,30.22,30.06,12,4,15,0.00
2013-3-27,44.6,35.5,24.1,22.8,17.7,12.5,63,49,31,30.29,30.22,10,3,10,0.00
2013-3-28,47.7,35.4,19.6,20.6,15.7,10.7,69,47,27,30.32,30.25,7,2,8,0.00
2013-3-29,51.1,41.5,21.6,24.2,19.5,14.0,74,43,26,30.30,30.18,8,2,8,0.00
2013-3-30,51.6,43.7,31.5,38.0,30.6,18.1,84,60,47,30.18,29.80,20,7,20,0.00
2013-3-31,46.6,39.1,31.6,37.9,29.3,13.6,87,69,44,29.89,29.71,15,7,21,0.00
2013-4-1,36.5,30.3,24.8,14.4,7.6,2.5,52,38,25,30.15,29.89,18,7,23,0.00
2013-4-2,41.4,31.7,23.4,12.3,8.8,2.6,53,39,23,30.28,30.15,15,5,17,0.00
2013-4-3,45.0,34.1,22.6,15.8,10.6,7.2,55,39,22,30.42,30.22,11,3,14,0.00
2013-4-4,58.3,43.0,30.7,32.5,23.5,15.0,55,47,33,30.22,29.93,17,8,20,0.00
2013-4-5,48.2,39.4,28.9,25.7,21.1,16.1,59,48,32,30.22,30.02,14,5,16,0.00
2013-4-6,61.9,46.2,33.6,46.0,29.4,14.0,79,53,36,30.09,29.53,19,10,21,0.02
2013-4-7,54.5,44.4,36.1,41.0,31.5,26.3,75,61,43,29.94,29.58,13,7,16,0.00
2013-4-8,58.6,45.8,36.9,46.2,37.6,26.8,87,73,61,29.97,29.60,11,6,14,0.47
2013-4-9,41.2,38.2,35.8,36.7,34.5,30.8,90,86,82,30.01,29.85,17,6,21,1.12
2013-4-10,35.8,34.0,32.0,30.8,29.3,27.4,84,83,77,30.04,29.88,11,5,17,0.86
2013-4-11,38.5,36.1,34.2,35.0,31.7,29.4,87,84,79,29.89,29.57,20,11,24,0.59
2013-4-12,41.2,35.5,33.6,34.5,28.9,23.5,87,77,65,29.78,29.51,11,5,14,0.04
2013-4-13,37.6,34.4,30.4,25.4,22.4,19.9,74,61,52,29.96,29.76,14,7,19,0.00
2013-4-14,50.9,38.6,29.8,41.3,30.1,20.6,81,71,59,29.96,29.54,22,8,27,0.09
2013-4-15,60.3,47.3,40.3,45.4,37.6,30.2,89,71,36,29.95,29.58,24,8,32,0.33
2013-4-16,54.7,43.3,32.7,31.1,27.6,23.7,71,55,34,30.26,29.94,12,4,14,0.01
2013-4-17,42.3,39.9,36.9,38.4,33.5,27.7,87,78,63,30.28,29.86,21,7,27,0.93
2013-4-18,58.5,45.3,37.2,56.5,41.4,29.7,93,86,74,29.88,29.31,28,9,34,0.37
2013-4-19,38.8,34.9,30.7,29.5,23.5,16.8,74,63,52,29.89,29.35,24,13,30,0.01
2013-4-20,46.0,35.6,25.9,18.6,13.0,8.6,62,41,22,30.34,29.90,12,4,14,0.00
2013-4-21,52.5,41.9,31.5,31.6,24.6,17.2,65,51,36,30.44,30.21,22,10,22,0.00
2013-4-22,67.1,54.2,43.3,39.0,34.0,29.6,62,47,34,30.22,29.97,16,8,20,0.00
2013-4-23,55.9,43.6,37.2,42.7,32.1,23.0,77,64,49,29.98,29.86,13,7,15,0.00
2013-4-24,54.1,43.1,32.4,28.4,22.3,17.5,64,45,25,30.02,29.95,16,6,25,0.00
2013-4-25,52.0,44.7,35.8,31.8,27.5,22.8,75,52,34,30.24,29.97,16,6,18,0.02
2013-4-26,70.0,54.5,35.1,43.1,34.5,22.9,63,48,35,30.24,30.10,23,10,28,0.00
2013-4-27,65.3,55.5,44.4,45.4,41.8,37.3,81,61,45,30.20,29.99,12,4,17,0.00
2013-4-28,72.7,56.4,38.3,44.8,40.6,34.2,85,59,33,29.99,29.77,8,2,11,0.00
2013-4-29,70.0,60.6,50.2,54.8,49.5,43.6,81,68,53,29.83,29.70,15,5,15,0.08
2013-4-30,87.4,73.3,59.5,58.2,53.2,47.0,86,54,28,29.88,29.66,25,9,27,0.06
2013-5-1,82.2,66.1,51.1,56.2,48.4,40.5,68,54,39,30.21,29.88,18,6,21,0.00
2013-5-2,56.8,46.0,36.3,41.3,36.7,32.6,89,71,55,30.29,30.20,16,7,20,0.08
2013-5-3,46.0,39.8,34.9,44.7,37.8,32.5,96,93,88,30.20,29.99,11,5,14,0.78
2013-5-4,71.8,62.1,47.3,54.8,49.0,45.3,93,64,45,30.04,29.98,14,5,18,0.01
2013-5-5,76.1,60.1,44.4,51.0,45.8,41.4,90,62,36,30.06,29.99,12,3,14,0.00
2013-5-6,76.6,61.5,44.2,48.9,44.2,39.3,86,57,27,30.07,29.98,11,2,11,0.00
2013-5-7,79.9,69.6,52.7,46.8,41.8,36.4,73,40,22,30.06,29.98,11,3,11,0.00
2013-5-8,82.0,65.7,46.2,51.3,46.0,40.3,89,54,23,30.03,29.95,11,2,13,0.00
2013-5-9,64.9,59.8,48.9,56.7,52.3,47.0,93,77,58,29.96,29.87,13,3,13,0.76
2013-5-10,53.4,46.1,41.5,46.4,42.0,39.1,95,86,74,29.99,29.88,11,4,14,0.89
2013-5-11,54.3,50.0,42.8,49.0,33.9,25.2,94,56,35,30.02,29.79,21,11,26,0.01
2013-5-12,55.9,47.3,34.2,29.3,24.4,17.9,67,42,24,30.11,30.04,14,6,18,0.00
2013-5-13,65.1,50.4,29.1,39.5,30.9,24.4,90,52,24,30.15,29.88,10,4,11,0.00
2013-5-14,89.1,72.3,51.6,59.4,49.2,38.5,64,46,28,29.88,29.55,20,6,40,0.02
2013-5-15,79.2,70.2,55.2,58.8,46.5,39.3,63,44,24,29.86,29.57,12,4,17,0.00
2013-5-16,86.7,67.0,48.0,52.6,45.9,38.3,83,50,24,29.98,29.85,16,4,21,0.00
2013-5-17,61.5,55.2,48.0,51.5,45.1,36.4,94,70,46,30.09,29.97,12,5,17,0.84
2013-5-18,79.2,65.7,50.9,63.1,55.3,45.5,83,70,54,30.05,29.92,11,4,12,0.00
2013-5-19,85.8,71.4,58.5,64.1,59.6,54.5,88,68,46,29.94,29.67,29,6,29,0.04
2013-5-20,82.0,72.2,61.7,62.1,59.3,55.9,92,66,46,29.82,29.62,18,7,21,0.50
2013-5-21,77.4,69.3,58.1,60.8,57.1,53.6,85,66,53,29.71,29.61,16,7,20,0.00
2013-5-22,69.6,61.2,54.3,60.7,55.8,51.2,92,83,66,29.80,29.63,10,2,12,0.76
2013-5-23,64.6,54.2,43.2,50.8,44.0,36.9,92,71,37,30.29,29.80,13,5,15,0.05
2013-5-24,64.0,51.2,34.9,43.1,38.3,31.7,94,64,41,30.43,30.28,8,3,13,0.00
2013-5-25,61.7,53.4,46.6,43.3,38.2,33.8,72,57,43,30.37,30.27,11,4,12,0.00
2013-5-26,66.7,54.4,41.4,48.3,41.9,33.7,77,64,44,30.29,30.14,13,6,15,0.07
2013-5-27,55.9,52.8,50.7,51.5,48.0,41.4,96,84,65,30.14,29.89,20,8,20,0.05
2013-5-28,72.1,60.5,51.1,63.3,56.5,49.8,97,87,70,29.89,29.70,9,4,11,0.31
2013-5-29,82.4,70.8,61.7,65.4,61.3,57.9,93,74,55,29.90,29.77,17,6,19,0.31
2013-5-30,82.6,72.1,62.1,68.3,62.8,57.9,91,74,53,29.90,29.70,23,9,38,0.34
2013-5-31,76.1,68.9,63.5,63.7,60.2,57.8,85,74,56,29.79,29.69,21,9,22,0.01
2013-6-1,78.4,69.0,58.3,62.7,58.7,52.6,90,71,49,29.72,29.63,17,6,23,0.00
2013-6-2,64.2,55.3,45.1,55.3,43.5,38.9,83,66,46,30.02,29.71,17,6,21,0.00
2013-6-3,71.2,57.0,39.7,50.5,42.0,37.6,93,62,33,30.09,30.00,10,2,10,0.00
2013-6-4,69.1,60.9,50.9,51.6,47.2,42.2,84,62,43,30.16,30.06,11,4,13,0.08
2013-6-5,65.7,56.1,49.3,54.6,49.9,45.4,89,80,67,30.13,29.94,13,4,17,0.18
2013-6-6,60.3,55.9,51.4,53.0,50.3,46.6,90,81,74,29.97,29.92,8,4,13,0.17
2013-6-7,72.7,59.8,52.0,53.5,48.6,46.2,83,68,42,30.00,29.91,11,2,13,0.00
2013-6-8,73.6,62.4,51.3,53.0,48.4,44.3,86,63,41,30.00,29.93,9,3,14,0.00
2013-6-9,79.5,67.3,56.3,59.8,54.1,47.5,85,64,46,30.01,29.80,21,7,24,0.11
2013-6-10,82.6,71.1,58.6,63.1,59.8,55.3,89,69,47,29.87,29.78,11,3,11,0.01
2013-6-11,83.5,72.2,57.6,64.3,60.4,54.4,90,68,50,29.92,29.81,10,2,14,0.00
2013-6-12,78.3,69.4,61.2,66.3,62.5,57.3,88,79,65,29.91,29.62,16,4,19,1.31
2013-6-13,80.2,68.5,57.9,58.5,55.4,53.4,87,65,42,30.06,29.78,12,4,15,0.28
2013-6-14,77.4,66.7,51.8,58.5,53.8,48.4,90,65,47,30.16,30.00,11,4,13,0.00
2013-6-15,82.6,71.8,56.8,66.4,62.1,51.8,90,73,55,30.05,29.83,14,6,17,0.56
2013-6-16,85.3,75.0,65.7,65.5,58.2,52.2,89,60,34,29.92,29.86,11,3,11,0.01
2013-6-17,87.3,73.2,61.2,61.4,56.3,50.5,77,58,35,29.98,29.88,11,4,18,0.00
2013-6-18,74.3,63.8,55.4,55.8,50.5,45.2,78,63,42,30.10,29.98,14,5,16,0.00
2013-6-19,79.3,65.1,46.2,54.0,48.9,43.2,90,59,37,30.15,30.06,9,3,12,0.00
2013-6-20,86.7,73.3,57.6,61.7,54.8,45.9,71,54,34,30.14,30.04,16,5,16,0.00
2013-6-21,79.7,71.4,65.5,64.6,61.5,57.1,88,71,55,30.10,29.86,14,4,21,0.51
2013-6-22,81.0,72.7,66.0,68.0,64.4,61.8,88,76,61,30.11,29.91,11,6,22,1.51
2013-6-23,85.8,73.9,63.5,70.9,64.7,59.9,89,74,58,30.06,29.87,14,7,19,0.25
2013-6-24,81.7,72.9,67.6,67.0,63.7,61.9,84,74,58,30.02,29.84,17,6,17,0.00
2013-6-25,84.7,73.1,65.5,70.4,65.8,62.3,90,79,60,29.94,29.80,11,4,13,0.80
2013-6-26,84.2,74.5,65.1,68.0,65.4,60.4,87,74,54,29.81,29.72,11,4,14,0.44
2013-6-27,87.4,78.1,68.9,69.9,65.0,58.2,87,66,44,29.81,29.70,13,4,17,0.00
2013-6-28,77.4,70.1,62.4,62.3,58.9,54.9,85,68,52,29.75,29.65,15,4,15,0.01
2013-6-29,74.8,67.0,63.5,61.2,58.7,55.4,86,76,54,29.86,29.65,9,4,14,0.44
2013-6-30,80.6,67.8,56.1,58.5,52.3,48.7,77,59,37,30.06,29.86,10,4,14,0.00
2013-7-1,80.8,68.1,54.9,56.3,52.1,49.3,82,59,35,30.14,30.06,12,3,14,0.00
2013-7-2,78.1,65.8,53.6,54.7,49.8,40.4,85,59,26,30.14,30.07,9,3,14,0.00
2013-7-3,73.4,64.7,52.9,59.0,54.6,46.1,83,70,60,30.09,30.03,6,2,7,0.00
2013-7-4,82.6,71.1,57.6,60.8,57.5,54.4,90,65,42,30.08,30.01,11,3,13,0.00
2013-7-5,84.7,74.7,64.2,63.9,60.8,58.1,82,63,46,30.07,30.00,17,5,18,0.00
2013-7-6,70.3,66.0,62.6,59.0,57.7,56.2,81,75,66,30.04,30.02,4,1,4,0.00
2013-7-7,88.9,78.4,67.1,69.0,65.6,61.4,84,66,50,29.99,29.91,11,5,11,0.00
2013-7-8,89.8,80.0,71.8,71.0,68.5,65.1,83,69,53,29.98,29.90,13,6,13,0.01
2013-7-9,85.5,76.1,69.3,71.3,68.2,64.0,86,77,60,30.00,29.83,16,4,16,0.58
2013-7-10,80.4,74.0,61.3,69.3,59.4,54.1,81,62,42,30.02,29.85,11,4,11,0.00
2013-7-11,82.9,69.7,55.0,60.3,55.0,51.5,89,63,39,30.13,30.03,6,2,6,0.00
2013-7-12,82.6,70.2,55.2,57.9,54.4,51.1,87,60,37,30.17,30.07,8,2,8,0.00
2013-7-13,84.2,72.4,58.8,63.0,57.4,52.0,79,60,45,30.17,30.08,10,4,10,0.00
2013-7-14,87.3,75.4,59.0,65.9,61.8,54.4,86,64,47,30.24,30.16,11,4,12,0.12
2013-7-15,91.8,78.4,66.4,72.3,66.7,61.8,87,69,46,30.28,30.21,7,2,10,0.01
2013-7-16,91.9,82.5,71.1,72.5,70.0,66.2,87,67,50,30.29,30.22,13,4,13,0.00
2013-7-17,92.8,83.8,71.8,73.4,70.0,66.7,87,65,48,30.30,30.16,9,3,11,0.00
2013-7-18,91.9,83.1,71.6,72.9,69.4,67.2,88,65,48,30.18,29.91,14,6,17,0.00
2013-7-19,91.8,83.4,71.2,70.1,65.9,60.2,69,56,44,29.86,29.75,17,8,21,0.00
2013-7-20,86.9,73.6,60.3,63.7,59.4,54.2,84,63,44,29.99,29.85,11,4,12,0.00
2013-7-21,82.4,67.3,59.7,64.8,57.9,53.0,86,73,55,29.99,29.89,14,4,22,1.07
2013-7-22,85.6,72.8,61.9,67.8,62.5,57.7,88,71,53,29.91,29.67,24,6,27,0.06
2013-7-23,76.6,68.8,55.4,62.7,54.7,50.3,83,62,45,30.01,29.75,11,4,17,0.00
2013-7-24,74.3,63.2,52.0,56.6,50.5,47.9,89,66,44,30.09,30.01,7,2,10,0.00
2013-7-25,79.7,66.8,53.2,62.4,56.4,48.9,88,71,52,30.08,29.98,14,4,14,0.05
2013-7-26,79.0,68.5,60.6,64.5,58.2,51.7,88,71,44,29.97,29.85,13,5,14,0.05
2013-7-27,63.1,56.3,50.9,52.8,46.0,43.3,80,69,54,29.97,29.88,11,5,14,0.00
2013-7-28,68.9,63.6,56.3,51.6,49.8,46.3,75,61,53,30.02,29.92,13,6,15,0.04
2013-7-29,76.6,63.8,51.3,57.3,52.4,46.9,85,68,49,30.17,30.02,6,2,9,0.00
2013-7-30,73.0,65.0,55.4,59.3,56.4,51.6,89,74,58,30.18,30.09,9,3,10,0.00
2013-7-31,79.9,67.6,59.5,62.9,58.5,54.1,85,74,54,30.09,29.97,13,3,13,0.01
2013-8-1,80.6,68.1,57.6,59.1,54.9,51.9,87,65,38,30.02,29.91,11,3,14,0.00
2013-8-2,82.9,71.8,63.1,62.8,56.6,50.9,83,61,37,29.98,29.84,10,4,12,0.00
2013-8-3,80.6,67.3,51.1,56.4,50.8,46.7,86,58,33,30.15,29.98,11,3,13,0.00
2013-8-4,78.3,64.7,49.8,56.3,52.0,45.7,87,65,43,30.24,30.11,8,2,11,0.00
2013-8-5,72.5,64.4,57.7,61.7,56.8,52.3,86,77,62,30.12,29.87,12,4,16,0.09
2013-8-6,84.9,74.2,65.8,66.5,64.0,61.8,88,72,51,29.89,29.80,12,4,15,0.00
2013-8-7,81.0,73.3,61.5,67.8,61.5,54.9,86,68,50,29.99,29.77,14,4,14,0.00
2013-8-8,79.3,69.0,59.4,59.5,56.7,50.9,85,66,47,30.07,29.99,7,3,10,0.00
2013-8-9,83.1,69.4,56.3,61.1,55.1,49.8,82,62,40,30.08,29.99,11,3,12,0.00
2013-8-10,78.3,65.6,52.2,56.6,52.5,47.8,87,65,42,30.17,30.08,6,2,9,0.00
2013-8-11,74.5,63.3,52.3,62.4,56.8,48.9,90,80,65,30.14,30.04,8,2,11,0.13
2013-8-12,82.4,73.6,64.6,65.3,59.7,53.4,89,63,44,30.00,29.93,9,3,11,0.08
2013-8-13,73.4,63.3,50.9,54.8,48.6,44.0,80,60,40,30.18,30.00,10,3,10,0.00
2013-8-14,75.0,60.7,45.5,53.2,48.5,42.7,91,67,42,30.23,30.13,10,2,10,0.18
2013-8-15,79.0,64.3,54.3,57.2,52.6,49.3,86,68,42,30.16,30.10,8,2,12,0.00
2013-8-16,83.5,67.1,51.1,60.5,52.3,48.1,90,64,32,30.20,30.13,8,2,9,0.00
2013-8-17,82.6,67.2,52.0,58.1,53.1,48.5,90,64,36,30.25,30.17,8,2,12,0.00
2013-8-18,82.0,67.1,50.9,59.8,53.4,48.1,90,65,35,30.23,30.09,10,2,11,0.00
2013-8-19,83.7,68.9,54.0,61.6,56.6,50.5,90,68,44,30.11,30.02,14,3,15,0.00
2013-8-20,86.5,74.2,60.4,64.4,61.0,56.5,90,66,44,30.08,30.00,15,5,17,0.00
2013-8-21,90.0,79.5,70.2,68.0,64.9,61.4,74,62,45,30.03,29.93,21,7,24,0.00
2013-8-22,82.0,71.8,66.9,67.9,64.6,59.9,88,78,57,30.14,30.00,10,2,20,1.71
2013-8-23,82.8,69.8,55.8,60.8,56.3,52.4,89,65,42,30.20,30.12,8,3,10,0.00
2013-8-24,84.0,70.7,54.1,66.2,59.0,50.4,89,68,52,30.26,30.16,11,4,14,0.00
2013-8-25,88.7,78.9,70.0,69.4,64.5,60.1,75,62,49,30.20,30.09,17,8,18,0.00
2013-8-26,90.9,79.9,70.0,71.7,67.0,61.7,75,65,52,30.13,29.97,12,5,14,0.00
2013-8-27,93.6,82.4,73.4,71.8,69.2,66.0,80,65,48,29.98,29.82,15,5,18,0.00
2013-8-28,85.5,77.0,69.4,71.3,67.1,63.9,84,72,55,30.06,29.86,9,2,11,0.00
2013-8-29,86.9,76.8,62.1,67.7,64.0,58.8,90,67,46,30.10,29.98,11,4,13,0.00
2013-8-30,93.0,79.3,68.9,73.4,68.0,62.9,87,70,48,29.98,29.79,11,4,14,0.00
2013-8-31,71.1,67.9,65.7,63.0,60.1,58.8,80,76,74,29.90,29.85,9,4,9,0.00
2013-9-1,86.0,71.4,60.8,67.7,61.6,54.1,91,74,42,29.86,29.74,10,4,10,0.00
2013-9-2,73.9,64.3,52.0,57.2,52.8,46.7,84,68,47,30.03,29.85,10,3,11,0.00
2013-9-3,74.8,59.8,45.5,54.3,49.7,43.0,92,72,46,30.11,30.01,9,2,13,0.00
2013-9-4,85.5,67.1,50.0,62.7,56.2,46.9,92,71,45,30.13,30.04,11,3,12,0.00
2013-9-5,77.7,67.5,58.8,59.9,56.4,47.4,87,69,48,30.27,30.14,11,5,15,0.00
2013-9-6,87.1,75.2,56.1,63.8,59.3,49.4,79,59,45,30.21,29.98,14,5,14,0.00
2013-9-7,91.0,77.6,68.2,69.7,63.9,58.2,79,64,46,30.00,29.89,13,4,17,0.00
2013-9-8,71.6,67.6,62.6,65.5,60.0,55.5,82,77,73,30.08,29.96,11,5,13,0.00
2013-9-9,92.1,77.8,63.0,71.9,65.9,58.6,88,68,51,29.98,29.78,12,5,14,0.00
2013-9-10,94.6,82.6,70.2,65.6,62.6,59.8,70,52,36,29.96,29.83,20,6,23,0.00
2013-9-11,82.4,72.2,65.5,65.8,62.8,61.0,89,73,51,30.10,29.97,13,3,14,0.22
2013-9-12,76.6,65.6,56.7,60.7,52.6,46.0,91,65,41,30.15,29.99,17,4,17,0.00
2013-9-13,68.2,55.1,43.0,45.3,40.8,37.7,87,61,33,30.24,30.15,8,3,12,0.00
2013-9-14,72.0,56.9,40.1,48.7,43.5,37.7,93,65,37,30.17,29.99,12,4,16,0.00
2013-9-15,63.3,56.7,53.6,55.1,51.5,45.2,92,83,58,30.24,29.97,8,2,11,0.58
2013-9-16,66.2,54.1,41.2,49.8,43.0,36.7,85,68,43,30.40,30.24,9,3,12,0.00
2013-9-17,71.2,55.6,38.7,54.1,47.1,36.4,94,75,51,30.34,30.08,14,4,16,0.02
2013-9-18,77.5,67.2,58.8,64.6,59.0,52.7,85,75,62,30.08,29.88,16,6,19,0.06
2013-9-19,87.4,72.2,66.7,69.8,65.9,60.6,92,81,54,29.89,29.72,27,6,27,1.25
2013-9-20,70.9,65.2,55.6,64.9,57.8,50.3,92,78,58,29.85,29.74,14,6,16,0.01
2013-9-21,62.2,54.1,45.5,49.6,45.5,42.7,90,73,55,29.96,29.85,11,4,16,0.00
2013-9-22,66.0,51.9,39.2,46.0,42.7,37.4,94,73,47,30.08,29.96,8,2,10,0.00
2013-9-23,68.4,54.3,40.5,51.6,45.4,38.3,93,74,51,30.12,30.03,10,4,14,0.00
2013-9-24,72.7,56.4,41.7,52.3,46.6,39.5,93,72,44,30.05,29.96,11,3,16,0.00
2013-9-25,72.3,57.5,42.8,55.5,48.6,40.5,93,75,47,30.01,29.95,9,3,11,0.00
2013-9-26,77.5,61.0,41.9,57.1,49.2,40.0,94,68,42,30.09,30.00,9,4,13,0.00
2013-9-27,81.3,63.4,45.1,54.8,49.2,43.0,93,64,32,30.14,30.03,12,4,16,0.00
2013-9-28,80.1,62.5,51.3,64.5,52.6,44.5,90,71,48,30.05,29.84,22,6,22,0.20
2013-9-29,70.7,60.5,42.4,53.6,45.9,40.7,95,63,34,30.08,29.98,7,2,10,0.00
2013-9-30,72.9,62.0,44.1,48.8,45.4,40.7,89,57,34,29.98,29.82,17,6,18,0.00
2013-10-1,80.4,66.1,54.0,59.9,55.3,48.5,89,70,47,29.98,29.84,17,6,20,0.00
2013-10-2,53.2,48.7,44.6,50.1,46.5,42.7,94,92,89,30.06,29.98,0,0,0,0.00
2013-10-3,72.0,69.2,66.0,64.8,63.8,62.2,90,83,77,29.89,29.83,6,2,9,0.00
2013-10-4,66.4,64.4,61.3,64.3,61.8,58.4,95,91,89,30.01,29.87,13,4,14,0.15
2013-10-5,73.8,65.3,60.8,70.2,62.8,57.0,97,92,81,29.95,29.75,11,4,14,0.15
2013-10-6,58.8,52.1,45.5,43.8,40.9,38.7,89,67,50,29.76,29.68,11,5,13,0.09
2013-10-7,68.9,53.0,41.9,47.8,43.2,39.2,92,73,36,30.08,29.73,13,4,15,0.02
2013-10-8,75.9,56.6,38.5,50.8,44.0,37.2,96,67,32,30.14,30.06,14,3,20,0.00
2013-10-9,73.8,58.4,45.9,50.5,45.0,40.5,90,64,32,30.21,30.11,12,3,14,0.00
2013-10-10,75.2,56.5,38.8,52.6,45.4,37.5,95,70,38,30.16,30.04,11,3,11,0.00
2013-10-11,75.2,60.3,45.1,58.2,50.9,43.0,95,73,51,30.04,29.91,17,5,18,0.00
2013-10-12,71.2,61.0,41.7,58.1,48.7,36.9,86,66,36,30.15,29.89,16,6,19,0.00
2013-10-13,63.3,47.3,34.5,45.5,35.6,31.6,95,68,31,30.40,30.15,9,2,13,0.00
2013-10-14,62.8,47.1,31.5,44.4,37.9,28.9,96,72,46,30.40,30.10,14,4,19,0.00
2013-10-15,61.0,52.7,45.3,57.6,47.5,39.9,95,83,68,30.10,29.73,17,7,17,0.26
2013-10-16,53.6,49.6,46.4,49.1,45.3,42.6,92,85,77,29.93,29.77,12,5,17,0.01
2013-10-17,55.9,46.0,37.2,44.2,40.2,33.4,94,81,49,29.92,29.80,8,2,15,0.05
2013-10-18,48.9,42.9,35.8,42.3,37.2,32.3,94,81,67,29.93,29.78,12,3,17,0.00
2013-10-19,52.7,39.8,29.7,39.9,34.0,27.4,93,81,47,29.90,29.71,13,3,32,0.08
2013-10-20,47.8,38.2,28.9,44.8,34.3,26.4,96,86,67,29.84,29.69,14,3,14,0.07
2013-10-21,46.6,37.6,29.7,42.3,27.2,20.2,86,66,51,29.93,29.74,14,6,15,0.01
2013-10-22,47.5,35.9,24.1,30.3,24.7,17.7,82,64,46,29.94,28.91,6,3,12,0.00
2013-10-23,43.3,34.3,24.6,29.4,24.2,18.5,85,67,40,29.02,28.95,8,3,12,0.00
2013-10-24,45.1,35.3,27.1,27.2,23.3,19.0,76,62,42,29.29,29.02,12,4,15,0.00
2013-10-25,52.2,44.0,28.2,29.9,26.8,20.3,80,52,40,29.35,28.90,24,11,30,0.00
2013-10-26,52.3,45.0,37.2,35.9,28.8,23.8,71,53,40,29.07,28.79,28,7,28,0.00
2013-10-27,55.2,39.8,25.5,31.5,26.0,20.1,85,60,33,29.07,28.90,19,5,19,0.00
2013-10-28,43.3,40.0,32.7,32.5,29.8,25.7,79,67,58,29.41,29.04,11,5,17,0.00
2013-10-29,54.3,43.6,36.1,40.6,34.1,25.2,85,69,55,29.40,29.13,10,4,13,0.00
2013-10-30,54.0,49.8,43.7,52.3,47.1,39.1,96,90,82,29.13,28.75,11,3,14,0.01
2013-10-31,61.7,55.0,43.0,60.3,53.2,38.8,97,94,84,28.75,28.31,15,5,16,0.52
2013-11-1,46.0,42.9,37.8,41.5,38.8,34.7,89,85,81,28.76,28.36,16,5,18,0.02
2013-11-2,45.1,38.9,29.3,37.0,33.2,25.7,93,81,64,29.16,28.76,11,3,14,0.01
2013-11-3,51.1,37.7,24.1,40.5,29.1,20.3,95,73,46,29.29,29.16,14,4,16,0.00
2013-11-4,52.5,47.8,41.5,44.6,37.7,33.5,85,68,58,29.20,29.03,17,10,21,0.00
2013-11-5,53.8,49.9,46.4,50.4,46.2,42.7,94,87,71,29.93,28.96,16,5,21,0.44
2013-11-6,54.5,42.0,30.7,52.5,35.2,20.4,93,78,53,30.14,29.71,17,7,23,0.31
2013-11-7,41.4,33.9,27.3,29.7,24.8,19.4,78,69,57,30.21,30.14,11,4,13,0.00
2013-11-8,46.4,35.9,21.9,32.4,26.0,17.3,86,68,51,30.25,29.77,18,6,25,0.00
2013-11-9,52.5,46.3,37.4,38.4,32.5,23.2,72,59,48,30.07,29.74,22,12,27,0.00
2013-11-10,48.9,41.8,36.7,30.1,27.1,22.9,65,56,44,30.30,30.08,12,7,14,0.00
2013-11-11,43.5,31.9,21.4,31.5,20.7,8.2,86,63,51,30.53,30.03,16,6,16,0.08
2013-11-12,31.3,22.8,16.5,12.1,8.2,5.1,63,53,37,30.67,30.51,11,5,13,0.00
2013-11-13,42.8,34.3,18.0,15.9,12.3,6.8,62,41,28,30.41,30.03,23,12,24,0.00
2013-11-14,48.0,39.4,31.1,29.9,22.6,13.9,64,51,43,30.03,29.85,20,9,21,0.00
2013-11-15,56.5,45.2,30.7,37.3,31.8,23.1,77,60,46,29.91,29.85,11,6,14,0.00
2013-11-16,57.7,48.0,37.4,52.9,44.3,31.0,95,87,77,29.85,29.46,20,10,31,0.14
2013-11-17,57.7,49.2,38.1,53.1,44.1,29.6,92,83,70,29.66,29.18,24,9,29,0.99
2013-11-18,38.7,33.0,24.8,29.7,21.1,14.7,73,62,48,30.23,29.67,21,9,22,0.00
2013-11-19,40.6,29.9,17.2,25.1,18.8,10.1,78,64,47,30.32,30.19,11,4,11,0.00
2013-11-20,39.4,35.6,32.4,32.1,26.6,23.7,85,70,56,30.20,30.06,20,9,21,0.05
2013-11-21,42.4,39.0,36.1,37.8,34.5,31.8,90,84,77,30.24,30.08,8,3,11,0.01
2013-11-22,37.0,30.4,21.9,31.8,19.7,9.1,86,65,41,30.44,30.23,12,6,16,0.02
2013-11-23,24.8,17.4,8.8,10.1,-1.3,-9.2,57,44,27,30.67,30.38,20,8,22,0.00
2013-11-24,26.6,16.6,5.9,1.4,-3.5,-6.5,61,42,23,30.65,30.21,23,8,25,0.00
2013-11-25,30.4,25.6,20.8,22.9,14.9,1.3,78,65,35,30.20,29.97,22,11,27,0.00
2013-11-26,32.7,24.9,12.0,23.1,11.0,-4.5,75,55,37,30.20,29.98,18,7,18,0.00
2013-11-27,28.8,18.4,9.5,7.7,2.3,-4.4,61,49,32,30.25,30.15,13,5,13,0.00
2013-11-28,32.0,24.5,19.4,13.3,8.4,5.9,55,50,42,30.46,30.10,9,4,11,0.00
2013-11-29,30.6,21.3,8.2,17.0,8.3,-1.7,69,57,45,30.57,30.29,13,4,14,0.00
2013-11-30,44.1,33.3,26.4,27.6,22.0,15.7,76,63,52,30.29,30.00,12,5,15,0.00
2013-12-1,43.2,32.5,25.3,25.8,21.2,15.5,76,64,45,30.12,29.95,5,2,8,0.00
2013-12-2,41.2,31.2,19.6,30.7,23.7,13.3,87,74,61,29.95,29.71,14,4,15,0.00
2013-12-3,38.1,35.7,33.3,37.1,33.5,29.8,96,91,87,29.74,29.65,12,5,14,0.15
2013-12-4,48.4,39.5,33.1,47.6,37.7,26.0,98,93,75,29.73,29.44,20,6,27,0.05
2013-12-5,33.1,20.5,12.7,25.5,7.5,-0.3,74,57,45,30.25,29.62,21,11,25,0.00
2013-12-6,17.8,10.2,5.7,-0.2,-5.6,-8.3,57,48,33,30.50,30.22,11,5,12,0.00
2013-12-7,15.6,6.3,-0.4,-5.3,-9.5,-13.3,57,48,29,30.64,30.50,10,3,11,0.00
2013-12-8,18.7,13.4,6.1,11.2,0.9,-9.6,73,57,43,30.55,29.92,11,4,14,0.00
2013-12-9,17.8,9.2,-6.3,7.1,-4.0,-20.4,72,55,34,30.14,29.89,21,7,24,0.00
2013-12-10,18.7,8.1,-6.9,2.7,-7.3,-19.7,63,49,36,30.21,29.86,20,9,21,0.00
2013-12-11,13.1,5.8,-8.7,4.3,-11.8,-27.6,67,45,26,30.47,30.19,12,5,14,0.00
2013-12-12,18.7,8.7,-5.8,3.7,-6.7,-20.6,59,49,41,30.42,30.13,14,7,19,0.00
2013-12-13,25.9,17.7,10.0,10.4,5.8,-1.7,65,59,48,30.18,30.09,11,4,14,0.00
2013-12-14,24.6,19.7,17.1,14.1,10.7,6.4,75,68,62,30.15,29.90,8,5,13,0.00
2013-12-15,18.1,9.7,1.9,7.4,-7.9,-17.6,62,44,32,30.09,29.89,14,6,19,0.00
2013-12-16,13.3,6.0,-5.4,6.0,-7.7,-20.8,72,53,36,30.11,29.96,10,4,13,0.00
2013-12-17,35.2,24.4,13.3,22.1,13.0,6.0,79,62,44,30.03,29.86,12,7,19,0.06
2013-12-18,34.5,22.7,6.1,20.6,8.6,-6.1,69,55,38,30.06,29.73,19,7,21,0.00
2013-12-19,29.8,24.5,16.3,20.9,15.6,8.3,78,69,55,29.95,29.75,12,4,13,0.00
2013-12-20,23.9,21.6,19.6,17.6,15.4,13.6,81,76,72,29.87,29.78,11,4,13,0.00
2013-12-21,25.9,24.0,21.9,21.2,19.1,17.0,82,81,80,29.86,29.72,11,3,11,0.00
2013-12-22,27.5,22.8,13.8,21.9,16.4,7.1,82,76,66,30.08,29.68,11,4,14,0.00
2013-12-23,17.6,17.0,16.3,10.5,10.1,9.1,74,74,73,30.11,30.08,2,0,2,0.00
2013-12-24,13.8,2.0,-14.6,-1.0,-11.1,-27.3,64,53,42,30.04,29.79,11,4,12,0.00
2013-12-25,22.5,18.4,9.0,15.8,10.6,-0.6,76,71,62,29.78,29.59,11,7,14,0.00
2013-12-26,25.2,19.3,9.5,15.6,9.5,-1.1,74,65,57,29.75,29.61,8,3,14,0.00
2013-12-27,35.6,24.7,5.4,24.8,15.4,-3.4,75,67,61,29.77,29.53,13,5,18,0.04
2013-12-28,43.9,31.5,18.3,28.4,21.7,10.9,82,67,54,29.57,29.30,14,4,16,0.11
2013-12-29,35.6,17.4,-5.3,25.8,5.2,-22.3,79,58,42,29.76,29.26,16,7,18,0.00
2013-12-30,0.9,-5.0,-16.2,-12.7,-23.2,-31.9,54,40,29,29.83,29.71,6,3,8,0.00
2013-12-31,6.4,1.8,-5.8,-5.7,-11.4,-18.0,59,53,42,29.87,29.69,8,3,9,0.00
2014-1-1,9.1,3.7,-1.3,-9.1,-13.4,-18.7,48,44,38,29.90,29.81,11,5,12,0.00
2014-1-2,14.7,4.6,-11.2,-4.6,-12.3,-27.2,56,44,34,29.94,29.77,13,5,13,0.00